Location: Blankensee
(53.5126°N, 14.3055°E)
Time: 18:18:34
(UTC+00:00)

USA 215 - Pass Details

Date: 08 August 2020
Orbit: 1102 x 1106 km, 123.0° (Epoch: 08 August)

Event Time Altitude Azimuth Distance (km) Brightness Sun altitude
Rises 02:37:34 0° 63° (ENE) 3,930 8.1 -7.3°
Reaches altitude 10° 02:40:03 10° 65° (ENE) 2,970 7.1 -7.0°
Maximum altitude 02:46:38 80° 152° (SSE) 1,124 3.4 -6.3°
Drops below altitude 10° 02:53:12 10° 240° (WSW) 2,958 4.9 -5.5°
Enters shadow 02:54:08 - 241° (WSW) 3,317 5.1 -5.4°
